FW4383 Weather Reports


time (UTC)temp
C
wind
direction
speed
KPH
gust
KPH
rain 1hr
cm
rain 24hr
cm
rain mn
cm
humidity
%
barometer
mb
20260503193033 27 319 4.8 9.7 0.00 0.00 0.00 41 1014.4
20260503191531 27 346 4.8 9.7 0.00 0.00 0.00 43 1014.7
20260503190035 26 336 4.8 9.7 0.00 0.00 0.00 46 1014.9
20260503183035 25 308 4.8 9.7 0.00 0.00 0.00 46 1015.2
20260503181528 24 334 3.2 9.7 0.00 0.00 0.00 48 1015.4
20260503180036 23 340 1.6 6.4 0.00 0.00 0.00 52 1015.6
20260503174532 23 350 1.6 6.4 0.00 0.00 0.00 54 1015.7
20260503173032 23 337 0.0 4.8 0.00 0.00 0.00 55 1015.9
20260503171535 22 30 1.6 4.8 0.00 0.00 0.00 56 1016.0
20260503150111 12 182 1.6 8.0 0.00 0.00 0.00 93 1016.9
20260503120142 7 180 0.0 3.2 0.00 0.00 0.00 95 1016.3
20260503081530 11 180 0.0 3.2 0.00 0.00 0.00 92 1016.0
20260503071532 11 180 0.0 0.0 0.00 0.00 0.00 91 1016.0
20260503060111 13 67 0.0 0.0 0.00 0.00 0.00 88 1015.8
20260503054537 13 67 0.0 0.0 0.00 0.00 0.00 88 1015.8
20260503053143 13 67 0.0 0.0 0.00 0.00 0.00 87 1015.9
20260503051535 14 67 0.0 0.0 0.00 0.00 0.00 86 1015.8
20260503050141 14 67 0.0 0.0 0.00 0.00 0.00 85 1015.7
20260503044608 14 51 0.0 0.0 0.00 0.00 0.00 84 1015.7
20260503043036 15 45 0.0 0.0 0.00 0.00 0.00 83 1015.4
20260503041535 15 45 0.0 0.0 0.00 0.00 0.00 80 1015.3
20260503040110 16 45 0.0 0.0 0.00 0.00 0.00 77 1015.0
20260503034534 17 45 0.0 0.0 0.00 0.00 0.00 75 1014.6
20260503033032 18 45 0.0 3.2 0.00 0.00 0.00 73 1014.2
20260503031533 18 38 0.0 6.4 0.00 0.00 0.00 71 1013.9
20260503030036 20 45 0.0 0.0 0.00 0.00 0.00 69 1013.6
20260503024534 20 45 0.0 4.8 0.00 0.00 0.00 66 1013.5
20260503023036 21 45 0.0 3.2 0.00 0.00 0.00 64 1013.4
20260503020043 23 45 0.0 3.2 0.00 0.00 0.00 58 1013.0
20260503020039 23 45 0.0 0.0 0.00 0.00 0.00 54 1013.0
20260503011539 25 337 0.0 3.2 0.00 0.00 0.00 50 1013.1
20260503010032 26 360 1.6 6.4 0.00 0.00 0.00 48 1013.0
20260503004534 26 22 0.0 3.2 0.00 0.00 0.00 47 1013.1
20260503003033 27 22 3.2 6.4 0.00 0.00 0.00 46 1013.0
20260503001537 28 5 3.2 6.4 0.00 0.00 0.00 44 1013.1
20260503000033 28 343 3.2 8.0 0.00 0.00 0.00 44 1013.1
20260502234535 28 356 1.6 4.8 0.00 0.00 0.00 44 1013.4
20260502233034 27 299 1.6 8.0 0.00 0.00 0.00 44 1013.6
20260502231536 27 325 3.2 8.0 0.00 0.00 0.00 46 1013.7
20260502230040 26 327 3.2 6.4 0.00 0.00 0.00 48 1013.9
20260502224608 27 328 3.2 9.7 0.00 0.00 0.00 49 1014.2
20260502223036 27 338 6.4 12.9 0.00 0.00 0.00 49 1014.5
20260502221532 27 334 3.2 12.9 0.00 0.00 0.00 50 1014.6
20260502220037 26 320 3.2 9.7 0.00 0.00 0.00 52 1014.9
20260502214531 25 24 0.0 4.8 0.00 0.00 0.00 53 1015.1
20260502213034 24 192 1.6 8.0 0.00 0.00 0.00 56 1015.4
20260502211535 23 346 1.6 8.0 0.00 0.00 0.00 58 1015.6
20260502210147 23 328 1.6 6.4 0.00 0.00 0.00 58 1015.8
20260502203035 21 182 0.0 6.4 0.00 0.00 0.00 63 1016.1
20260502201534 20 123 1.6 8.0 0.00 0.00 0.00 67 1016.2
20260502200107 17 237 4.8 11.3 0.00 0.00 0.00 71 1016.3